{"data":{"norad_id":66287,"intl_designator":"2025-247Y","name":"STARLINK-34884","alt_names":[],"object_type":"PAYLOAD","status":"ACTIVE","operator":null,"country":"US","launch_date":"2025-10-31","launch_site_code":"AFWTR","launch_vehicle":null,"mission":null,"orbit_class":"UNKNOWN","rcs_meters":null,"size_class":null,"mass_kg":null,"dimensions":null,"purposes":["comms"],"wikipedia_slug":null,"has_3d_model":false,"image_url":null,"decayed_at":null,"tle_current":{"epoch":"2026-09-20T13:36:39.556800Z","epoch_age_seconds":90910,"freshness":"FRESH","line1":"1 66287U 25247Y   26263.56712450  .00017921  00000+0  54010-3 0  9990","line2":"2 66287  53.1608   1.7660 0001110  85.2216 274.8914 15.34409102 50932","mean_motion":15.34409102,"eccentricity":0.000111,"inclination_deg":53.1608,"raan_deg":1.766,"arg_perigee_deg":85.2216,"mean_anomaly_deg":274.8914,"bstar":0.0005401,"rev_number":5093,"period_min":93.847201383455,"perigee_km":461.91685701489,"apogee_km":463.43551754246,"semimajor_km":6840.8131872787,"source":"CELESTRAK","updated_at":"2026-09-21T09:00:35.871367Z"}}}